• MPC Preparation (Info)

  • MPEC 2022-V39 : 2022 UT27

    The following Minor Planet Electronic Circular may be linked-to from your own Web pages, but must not otherwise be redistributed electronically.

    A form allowing access to any MPEC is at the bottom of this page.


    Read MPEC 2022-V38 Read MPEC 2022-V40


    M.P.E.C. 2022-V39                              Issued 2022 November 2, 11:34 UT
    
         The Minor Planet Electronic Circulars contain information on unusual
             minor planets, routine data on comets and natural satellites,
             and occasional editorial announcements.  They are published
        on behalf of Division F of the International Astronomical Union by the
              Minor Planet Center, Smithsonian Astrophysical Observatory,
                              Cambridge, MA 02138, U.S.A.
    			  
                 Prepared using the Tamkin Foundation Computer Network
    
                                  MPC@CFA.HARVARD.EDU
                URL https://www.minorplanetcenter.net/    ISSN 1523-6714
    
                                    2022 UT27                                
    
    
    Observations:
         K22U27T KC2022 10 15.58947804 25 34.874-17 45 51.47         22.62GVEV039F51
         K22U27T  C2022 10 19.51528404 26 25.636-17 02 23.53         22.32GVEV039F51
         K22U27T  C2022 10 19.52712804 26 25.550-17 02 14.42         22.08GVEV039F51
         K22U27T  C2022 10 19.53891004 26 25.426-17 02 05.91         22.12GVEV039F51
         K22U27T  C2022 10 23.49347604 26 09.697-16 05 44.98         23.21GVEV039F52
         K22U27T  C2022 10 23.50361504 26 09.457-16 05 35.96         22.83GVEV039F52
         K22U27T  C2022 10 23.51386004 26 09.207-16 05 25.69         22.71GVEV039F52
         K22U27T* C2022 10 30.48792604 22 56.534-13 49 26.99         22.32wUEV039F51
         K22U27T  C2022 10 30.51378204 22 55.093-13 48 50.94         22.15wUEV039F51
         K22U27T  C2022 10 30.52670904 22 54.378-13 48 32.98         22.03wUEV039F51
         K22U27T KC2022 10 30.60559304 22 50.028-13 46 41.57         22.64GVEV039F51
         K22U27T 3C2022 11 01.43138204 21 27.599-13 02 10.05         22.12GVEV039T14
         K22U27T 3C2022 11 01.43259404 21 27.524-13 02 08.25         22.12GVEV039T14
         K22U27T 3C2022 11 01.43380504 21 27.450-13 02 06.43         22.10GVEV039T14
    
    Observer details:
    F51 Pan-STARRS 1, Haleakala.  Observers J. Bulger, K. Chambers, T. Lowe, A.
        Schultz, I. Smith.  Measurers S. Chastel, J. Fairlamb, M. Huber, Y.
        Ramanjooloo, R. Wainscoat, R. Weryk, K. Chambers, T. de Boer, H. Gao,
        C.-C. Lin, E. Magnier.  1.8-m Ritchey-Chretien + CCD.
    F52 Pan-STARRS 2, Haleakala.  Observers J. Bulger, K. Chambers, T. Dukes, T.
        Lowe, A. Schultz, I. Smith.  Measurers S. Chastel, J. Fairlamb, M. Huber,
        Y. Ramanjooloo, R. Wainscoat, R. Weryk.  1.8-m Ritchey-Chretien + CCD.
    T14 Canada-France-Hawaii Telescope, Maunakea.  Observers R. Wainscoat, A.
        Acohido, E. Bertin.  Measurers R. Weryk, R. Wainscoat.  3.6-m Canada-
        France-Hawaii Telescope + CCD.
    
    Orbital elements:
    2022 UT27                                                Earth MOID = 0.2436 AU
    Epoch 2022 Aug. 9.0 TT = JDT 2459800.5                  Veres                   
    M 316.76841              (2000.0)            P               Q                  
    n   0.56680449     Peri.  317.78696     +0.80067142     -0.56336269             
    a   1.4460407      Node    77.61372     +0.59017546     +0.68316625             
    e   0.1668627      Incl.   12.04561     +0.10304467     +0.46465725             
    P   1.74           H   23.53          G   0.15           U   6                  
    Residuals in seconds of arc
    221015 F51  0.0   0.1+    221023 F52  0.1-  0.3-    221030 F51  0.1-  0.1-
    221019 F51  0.2+  0.1-    221023 F52  0.1+  0.2+    221101 T14  0.0   0.0
    221019 F51  0.2+  0.2+    221030 F51  0.1+  0.0     221101 T14  0.0   0.0
    221019 F51  0.2-  0.2-    221030 F51  0.1+  0.1+    221101 T14  0.0   0.0
    221023 F52  0.3-  0.3+    221030 F51  0.1+  0.0
    
    Ephemeris:
    2022 UT27                a,e,i = 1.45, 0.17, 12                  q = 1.2048
    Date    TT    R. A. (2000) Decl.     Delta      r    Elong.  Phase     V
    2022 10 03    04 16 12.5 -19 01 09   0.3413  1.2124   121.0    45.0    23.3
    ...
    2022 10 18    04 26 13.6 -17 20 14   0.2971  1.2054   128.9    40.0    22.9
    ...
    2022 10 26    04 25 24.0 -15 22 23   0.2764  1.2048   134.7    35.9    22.6
    ...
    2022 11 01    04 21 47.9 -13 12 46   0.2631  1.2058   139.8    32.1    22.4
    2022 11 02    04 20 57.7 -12 47 15   0.2611  1.2061   140.8    31.4    22.4
    2022 11 03    04 20 03.8 -12 20 34   0.2592  1.2064   141.7    30.6    22.3
    ...
    2022 11 09    04 13 26.0 -09 15 40   0.2497  1.2089   147.6    26.0    22.1
    ...
    2022 11 17    04 01 59.1 -04 05 32   0.2429  1.2142   155.6    19.7    21.9
    ...
    2022 12 02    03 38 47.1 +07 37 45   0.2545  1.2295   161.0    15.2    21.8
    
    M. P. C. Staff               (C) Copyright 2022 MPC           M.P.E.C. 2022-V39
    


    Read MPEC 2022-V38 Read MPEC 2022-V40


    MPEC number:

    Enter an MPEC number in one of the following forms:

    • 1997-B01 (the full form)
    • J97B01 (the packed version of the full form)
    • B01 (the abbreviated form)